User: anonymous   Login
Location: Unspecified
(0.0000°N, 0.0000°E)
Time: 04:03:31
(UTC+00:00)
Language:

USA 197 - Orbit

View from above orbital plane
View from above orbital plane
View from above satellite
View from above satellite

Ground track
Ground track

The orbit data is extracted from the following two-line orbital elements,

1 32287U 07054A   17316.00038136 0.00000000  00000-0  00000-0 0    00
2 32287   4.3159  71.6841 0004033 177.9644 182.0373  1.00220847    09
Epoch (UTC): 12 November 2017 00:00:32
Eccentricity: 0.0004033
inclination: 4.3159°
perigee height: 35783 km
apogee height: 35817 km
right ascension of ascending node: 71.6841°
argument of perigee: 177.9644°
revolutions per day: 1.00220847
mean anomaly at epoch: 182.0373°
orbit number at epoch: 0

The dashed part of the orbit path shows where the satellite is in the earth's shadow,  

DLR